WB4FAY-4 Weather Reports


time (UTC)temp
C
wind
direction
speed
KPH
gust
KPH
rain 1hr
cm
rain 24hr
cm
rain mn
cm
humidity
%
barometer
mb
20260902231518 35 80 4.8 9.7 0.00 0.00 0.00 43 1016.6
20260902231017 35 95 0.0 8.0 0.00 0.00 0.00 43 1016.6
20260902230517 35 86 1.6 8.0 0.00 0.00 0.00 44 1016.7
20260902230017 35 93 0.0 11.3 0.00 0.00 0.00 44 1016.7
20260902225518 35 103 3.2 9.7 0.00 0.00 0.00 44 1016.7
20260902225017 35 93 0.0 9.7 0.00 0.00 0.00 43 1016.7
20260902224517 35 42 0.0 9.7 0.00 0.00 0.00 43 1016.8
20260902224017 35 42 3.2 8.0 0.00 0.00 0.00 43 1016.8
20260902223517 35 79 3.2 9.7 0.00 0.00 0.00 42 1016.8
20260902223017 35 100 4.8 14.5 0.00 0.00 0.00 42 1016.9
20260902222517 35 106 3.2 9.7 0.00 0.00 0.00 42 1016.9
20260902222017 35 86 0.0 16.1 0.00 0.00 0.00 42 1017.0
20260902221516 35 99 0.0 11.3 0.00 0.00 0.00 42 1017.0
20260902221017 35 68 1.6 12.9 0.00 0.00 0.00 41 1017.0
20260902220517 35 72 0.0 9.7 0.00 0.00 0.00 42 1017.0
20260902220017 35 66 1.6 8.0 0.00 0.00 0.00 41 1017.0
20260902215517 36 93 4.8 9.7 0.00 0.00 0.00 41 1017.0
20260902215017 36 86 0.0 14.5 0.00 0.00 0.00 40 1016.9
20260902214517 36 92 0.0 12.9 0.00 0.00 0.00 40 1016.9
20260902214017 36 90 8.0 11.3 0.00 0.00 0.00 39 1016.9
20260902213517 36 68 6.4 11.3 0.00 0.00 0.00 38 1017.0
20260902213017 37 86 4.8 12.9 0.00 0.00 0.00 37 1017.0
20260902212517 37 71 0.0 6.4 0.00 0.00 0.00 37 1017.0
20260902212017 37 48 0.0 3.2 0.00 0.00 0.00 36 1016.9
20260902211516 37 65 1.6 12.9 0.00 0.00 0.00 36 1017.0
20260902211018 37 75 6.4 12.9 0.00 0.00 0.00 37 1017.1
20260902210517 37 18 4.8 8.0 0.00 0.00 0.00 37 1017.1
20260902210017 36 103 1.6 8.0 0.00 0.00 0.00 38 1017.1
20260902205517 36 96 0.0 12.9 0.00 0.00 0.00 38 1017.2
20260902205017 36 85 3.2 11.3 0.00 0.00 0.00 39 1017.2
20260902204517 36 106 0.0 12.9 0.00 0.00 0.00 39 1017.2
20260902204017 37 1 4.8 6.4 0.00 0.00 0.00 39 1017.3
20260902203517 37 347 4.8 16.1 0.00 0.00 0.00 39 1017.4
20260902203017 37 164 6.4 6.4 0.00 0.00 0.00 38 1017.5
20260902202517 37 80 1.6 12.9 0.00 0.00 0.00 37 1017.6
20260902202017 37 130 0.0 9.7 0.00 0.00 0.00 37 1017.6
20260902201517 37 97 3.2 8.0 0.00 0.00 0.00 36 1017.7
20260902201018 37 83 1.6 16.1 0.00 0.00 0.00 37 1017.7
20260902200517 36 82 4.8 11.3 0.00 0.00 0.00 38 1017.8
20260902200017 36 47 6.4 12.9 0.00 0.00 0.00 38 1017.8
20260902195517 36 89 0.0 8.0 0.00 0.00 0.00 37 1017.8
20260902195017 36 93 0.0 14.5 0.00 0.00 0.00 39 1017.9
20260902194518 36 102 3.2 8.0 0.00 0.00 0.00 39 1018.0
20260902194017 36 145 0.0 8.0 0.00 0.00 0.00 39 1018.2
20260902193517 36 64 0.0 11.3 0.00 0.00 0.00 39 1018.2
20260902193017 36 99 1.6 8.0 0.00 0.00 0.00 40 1018.3
20260902192517 36 37 8.0 6.4 0.00 0.00 0.00 39 1018.4
20260902192017 36 184 1.6 8.0 0.00 0.00 0.00 38 1018.4
20260902191517 36 83 3.2 9.7 0.00 0.00 0.00 38 1018.5
20260902191017 36 25 1.6 9.7 0.00 0.00 0.00 40 1018.6
20260902190517 36 89 1.6 11.3 0.00 0.00 0.00 40 1018.6
20260902190017 35 309 8.0 4.8 0.00 0.00 0.00 40 1018.7
20260902185517 35 229 1.6 4.8 0.00 0.00 0.00 43 1018.7
20260902185017 35 79 1.6 14.5 0.00 0.00 0.00 41 1018.7
20260902184518 35 3 4.8 8.0 0.00 0.00 0.00 42 1018.8
20260902184017 35 73 0.0 4.8 0.00 0.00 0.00 44 1018.8
20260902183517 35 250 0.0 8.0 0.00 0.00 0.00 42 1018.9
20260902183017 35 79 0.0 9.7 0.00 0.00 0.00 41 1018.9
20260902182517 35 178 0.0 6.4 0.00 0.00 0.00 42 1019.0
20260902182017 35 127 3.2 9.7 0.00 0.00 0.00 43 1019.1
20260902181518 35 76 3.2 6.4 0.00 0.00 0.00 44 1019.1
20260902181017 35 288 0.0 4.8 0.00 0.00 0.00 45 1019.2
20260902180517 35 30 0.0 6.4 0.00 0.00 0.00 46 1019.2
20260902180018 35 274 0.0 9.7 0.00 0.00 0.00 45 1019.2
20260902175517 34 44 8.0 8.0 0.00 0.00 0.00 45 1019.2
20260902175017 34 86 0.0 4.8 0.00 0.00 0.00 47 1019.4
20260902174518 35 73 0.0 8.0 0.00 0.00 0.00 44 1019.4
20260902174017 35 182 0.0 6.4 0.00 0.00 0.00 43 1019.5
20260902173518 35 78 0.0 11.3 0.00 0.00 0.00 43 1019.5
20260902173017 35 72 8.0 9.7 0.00 0.00 0.00 43 1019.6
20260902172517 35 112 6.4 6.4 0.00 0.00 0.00 45 1019.7
20260902172017 35 151 0.0 8.0 0.00 0.00 0.00 44 1019.7
20260902171517 35 93 1.6 6.4 0.00 0.00 0.00 43 1019.7
20260902171017 35 110 4.8 8.0 0.00 0.00 0.00 44 1019.9
20260902170517 35 107 0.0 4.8 0.00 0.00 0.00 46 1019.9
20260902170016 35 0 0.0 0.0 0.00 0.00 0.00 46 1019.9
20260902165517 35 0 0.0 0.0 0.00 0.00 0.00 45 1020.0
20260902165017 35 55 0.0 6.4 0.00 0.00 0.00 44 1020.2
20260902164517 35 24 0.0 8.0 0.00 0.00 0.00 46 1020.2
20260902164017 35 85 1.6 12.9 0.00 0.00 0.00 45 1020.2
20260902163517 34 107 0.0 6.4 0.00 0.00 0.00 47 1020.3
20260902163017 34 93 0.0 8.0 0.00 0.00 0.00 48 1020.3
20260902162517 33 100 1.6 8.0 0.00 0.00 0.00 50 1020.3
20260902162017 33 0 0.0 0.0 0.00 0.00 0.00 51 1020.3
20260902161517 33 267 0.0 6.4 0.00 0.00 0.00 51 1020.4
20260902161017 33 0 0.0 0.0 0.00 0.00 0.00 52 1020.5
20260902160517 33 0 0.0 0.0 0.00 0.00 0.00 51 1020.5
20260902160018 33 72 0.0 4.8 0.00 0.00 0.00 50 1020.7
20260902155517 33 85 1.6 8.0 0.00 0.00 0.00 49 1020.7
20260902155017 33 85 0.0 11.3 0.00 0.00 0.00 50 1020.7
20260902154516 33 30 0.0 4.8 0.00 0.00 0.00 50 1020.7
20260902154017 33 6 0.0 1.6 0.00 0.00 0.00 51 1020.7
20260902153517 33 10 0.0 4.8 0.00 0.00 0.00 53 1020.7
20260902153018 33 0 0.0 0.0 0.00 0.00 0.00 52 1020.7
20260902152517 33 0 0.0 0.0 0.00 0.00 0.00 52 1020.7
20260902152017 32 56 0.0 8.0 0.00 0.00 0.00 54 1020.7
20260902151516 32 58 8.0 3.2 0.00 0.00 0.00 56 1020.7
20260902151017 32 97 0.0 6.4 0.00 0.00 0.00 57 1020.7
20260902150517 32 54 3.2 8.0 0.00 0.00 0.00 59 1020.5
20260902150017 32 0 0.0 0.0 0.00 0.00 0.00 61 1020.5
20260902145517 31 0 0.0 0.0 0.00 0.00 0.00 61 1020.5
20260902145017 31 0 0.0 0.0 0.00 0.00 0.00 62 1020.5
20260902144518 31 0 0.0 0.0 0.00 0.00 0.00 64 1020.4
20260902144017 31 0 0.0 0.0 0.00 0.00 0.00 65 1020.5
20260902143517 30 0 0.0 0.0 0.00 0.00 0.00 67 1020.4
20260902143017 30 138 0.0 3.2 0.00 0.00 0.00 68 1020.4
20260902142517 30 143 1.6 4.8 0.00 0.00 0.00 69 1020.4
20260902142017 29 130 1.6 4.8 0.00 0.00 0.00 70 1020.4
20260902141517 29 130 3.2 3.2 0.00 0.00 0.00 71 1020.5
20260902141017 28 141 1.6 3.2 0.00 0.00 0.00 71 1020.5
20260902140517 28 0 0.0 0.0 0.00 0.00 0.00 72 1020.5
20260902140017 28 95 0.0 1.6 0.00 0.00 0.00 72 1020.7
20260902135517 28 120 0.0 3.2 0.00 0.00 0.00 73 1020.5
20260902135017 28 54 3.2 4.8 0.00 0.00 0.00 74 1020.5
20260902134517 27 86 1.6 4.8 0.00 0.00 0.00 75 1020.5
20260902134017 27 103 0.0 3.2 0.00 0.00 0.00 75 1020.5
20260902133517 27 104 1.6 3.2 0.00 0.00 0.00 76 1020.7
20260902133017 27 0 0.0 0.0 0.00 0.00 0.00 77 1020.7
20260902132517 26 83 0.0 1.6 0.00 0.00 0.00 78 1020.7
20260902132017 26 55 0.0 1.6 0.00 0.00 0.00 79 1020.5
20260902131517 26 88 1.6 6.4 0.00 0.00 0.00 80 1020.5
20260902131017 26 82 4.8 6.4 0.00 0.00 0.00 82 1020.4
20260902130517 26 86 0.0 3.2 0.00 0.00 0.00 83 1020.4
20260902130017 25 120 1.6 4.8 0.00 0.00 0.00 84 1020.5
20260902125517 25 72 3.2 3.2 0.00 0.00 0.00 85 1020.4
20260902125017 25 95 1.6 4.8 0.00 0.00 0.00 86 1020.5
20260902124517 25 90 4.8 4.8 0.00 0.00 0.00 87 1020.5
20260902124017 25 89 3.2 4.8 0.00 0.00 0.00 88 1020.4
20260902123517 24 0 0.0 0.0 0.00 0.00 0.00 89 1020.4
20260902123017 24 0 0.0 0.0 0.00 0.00 0.00 89 1020.4
20260902122517 24 0 0.0 0.0 0.00 0.00 0.00 89 1020.4
20260902122016 24 0 0.0 0.0 0.00 0.00 0.00 89 1020.3
20260902121517 24 0 0.0 0.0 0.00 0.00 0.00 89 1020.3
20260902121017 24 0 0.0 0.0 0.00 0.00 0.00 89 1020.3
20260902120517 24 0 0.0 0.0 0.00 0.00 0.00 89 1020.3
20260902120017 24 0 0.0 0.0 0.00 0.00 0.00 89 1020.3
20260902115517 24 0 0.0 0.0 0.00 0.00 0.00 89 1020.3
20260902115017 24 0 0.0 0.0 0.00 0.00 0.00 89 1020.2
20260902114517 24 0 0.0 0.0 0.00 0.00 0.00 89 1020.1
20260902114017 24 0 0.0 0.0 0.00 0.00 0.00 89 1020.0
20260902113517 24 0 0.0 0.0 0.00 0.00 0.00 88 1020.0
20260902113017 24 0 0.0 0.0 0.00 0.00 0.00 88 1020.0
20260902112517 24 0 0.0 0.0 0.00 0.00 0.00 88 1020.0
20260902112017 24 0 0.0 0.0 0.00 0.00 0.00 88 1019.9
20260902111516 24 0 0.0 0.0 0.00 0.00 0.00 88 1019.9
20260902111017 24 0 0.0 0.0 0.00 0.00 0.00 88 1019.9
20260902110517 24 0 0.0 0.0 0.00 0.00 0.00 88 1019.8
20260902110017 24 0 0.0 0.0 0.00 0.00 0.00 88 1019.9
20260902105517 24 0 0.0 0.0 0.00 0.00 0.00 88 1019.8
20260902105017 24 0 0.0 0.0 0.00 0.00 0.00 88 1019.7
20260902104518 24 0 0.0 0.0 0.00 0.00 0.00 88 1019.7
20260902104017 24 0 0.0 0.0 0.00 0.00 0.00 87 1019.7
20260902103517 24 0 0.0 0.0 0.00 0.00 0.00 87 1019.7
20260902103017 24 0 0.0 0.0 0.00 0.00 0.00 87 1019.6
20260902102517 24 0 0.0 0.0 0.00 0.00 0.00 87 1019.6
20260902102017 24 0 0.0 0.0 0.00 0.00 0.00 87 1019.6
20260902101517 24 0 0.0 0.0 0.00 0.00 0.00 87 1019.6
20260902101017 24 0 0.0 0.0 0.00 0.00 0.00 87 1019.5
20260902100518 24 0 0.0 0.0 0.00 0.00 0.00 87 1019.5
20260902100017 24 0 0.0 0.0 0.00 0.00 0.00 87 1019.5
20260902095517 24 0 0.0 0.0 0.00 0.00 0.00 87 1019.5
20260902095017 24 0 0.0 0.0 0.00 0.00 0.00 87 1019.4
20260902094517 24 0 0.0 0.0 0.00 0.00 0.00 87 1019.3
20260902094017 24 0 0.0 0.0 0.00 0.00 0.00 86 1019.2
20260902093517 24 0 0.0 0.0 0.00 0.00 0.00 86 1019.2
20260902093017 25 0 0.0 0.0 0.00 0.00 0.00 86 1019.2
20260902092517 24 0 0.0 0.0 0.00 0.00 0.00 86 1019.1
20260902092017 25 0 0.0 0.0 0.00 0.00 0.00 86 1019.1
20260902091517 25 0 0.0 0.0 0.00 0.00 0.00 86 1019.0
20260902091017 25 0 0.0 0.0 0.00 0.00 0.00 86 1019.0
20260902090517 25 0 0.0 0.0 0.00 0.00 0.00 86 1019.0
20260902090017 25 0 0.0 0.0 0.00 0.00 0.00 86 1018.9
20260902085517 25 0 0.0 0.0 0.00 0.00 0.00 86 1018.9
20260902085017 25 0 0.0 0.0 0.00 0.00 0.00 86 1018.9
20260902084518 25 0 0.0 0.0 0.00 0.00 0.00 86 1018.9
20260902084017 25 0 0.0 0.0 0.00 0.00 0.00 86 1018.8
20260902083517 25 0 0.0 0.0 0.00 0.00 0.00 86 1018.8
20260902083017 25 0 0.0 0.0 0.00 0.00 0.00 85 1018.8
20260902082517 25 0 0.0 0.0 0.00 0.00 0.00 85 1018.7
20260902082017 25 0 0.0 0.0 0.00 0.00 0.00 85 1018.7
20260902081517 25 0 0.0 0.0 0.00 0.00 0.00 85 1018.7
20260902081017 25 0 0.0 0.0 0.00 0.00 0.00 85 1018.7
20260902080517 25 0 0.0 0.0 0.00 0.00 0.00 85 1018.6
20260902080018 25 0 0.0 0.0 0.00 0.00 0.00 84 1018.6
20260902075517 25 0 0.0 0.0 0.00 0.00 0.00 84 1018.7
20260902075017 25 0 0.0 0.0 0.00 0.00 0.00 84 1018.7
20260902074517 25 0 0.0 0.0 0.00 0.00 0.00 84 1018.7
20260902074017 25 0 0.0 0.0 0.00 0.00 0.00 84 1018.7
20260902073517 25 0 0.0 0.0 0.00 0.00 0.00 83 1018.6
20260902073017 25 0 0.0 0.0 0.00 0.00 0.00 83 1018.6
20260902072517 25 0 0.0 0.0 0.00 0.00 0.00 83 1018.7
20260902072017 25 0 0.0 0.0 0.00 0.00 0.00 82 1018.7
20260902071516 25 0 0.0 0.0 0.00 0.00 0.00 82 1018.8
20260902071017 25 0 0.0 0.0 0.00 0.00 0.00 82 1018.7
20260902070517 25 0 0.0 0.0 0.00 0.00 0.00 81 1018.7
20260902070017 25 0 0.0 0.0 0.00 0.00 0.00 81 1018.8
20260902065517 26 0 0.0 0.0 0.00 0.00 0.00 81 1018.8
20260902065017 26 0 0.0 0.0 0.00 0.00 0.00 81 1018.7
20260902064518 26 0 0.0 0.0 0.00 0.00 0.00 80 1018.6
20260902064017 26 0 0.0 0.0 0.00 0.00 0.00 80 1018.7
20260902063518 25 0 0.0 0.0 0.00 0.00 0.00 80 1018.6
20260902063017 26 0 0.0 0.0 0.00 0.00 0.00 80 1018.7
20260902062517 26 0 0.0 0.0 0.00 0.00 0.00 80 1018.7
20260902062018 26 0 0.0 0.0 0.00 0.00 0.00 80 1018.7
20260902061517 26 0 0.0 0.0 0.00 0.00 0.00 80 1018.7
20260902061017 26 0 0.0 0.0 0.00 0.00 0.00 80 1018.7
20260902060517 26 0 0.0 0.0 0.00 0.00 0.00 80 1018.8
20260902060017 26 0 0.0 0.0 0.00 0.00 0.00 80 1018.8
20260902055517 26 0 0.0 0.0 0.00 0.00 0.00 80 1018.9
20260902055017 26 0 0.0 0.0 0.00 0.00 0.00 79 1018.9
20260902054517 26 0 0.0 0.0 0.00 0.00 0.00 79 1019.0
20260902054017 26 0 0.0 0.0 0.00 0.00 0.00 79 1019.0
20260902053517 26 0 0.0 0.0 0.00 0.00 0.00 79 1019.0
20260902053018 26 0 0.0 0.0 0.00 0.00 0.00 78 1019.0
20260902052517 26 0 0.0 0.0 0.00 0.00 0.00 78 1019.0
20260902052017 26 0 0.0 0.0 0.00 0.00 0.00 78 1018.9
20260902051517 26 0 0.0 0.0 0.00 0.00 0.00 78 1018.9
20260902051017 26 0 0.0 0.0 0.00 0.00 0.00 77 1018.9
20260902050517 26 0 0.0 0.0 0.00 0.00 0.00 77 1018.8
20260902050017 26 0 0.0 0.0 0.00 0.00 0.00 77 1018.9
20260902045517 26 0 0.0 0.0 0.00 0.00 0.00 76 1018.9
20260902045018 26 0 0.0 0.0 0.00 0.00 0.00 76 1018.9
20260902044517 26 0 0.0 0.0 0.00 0.00 0.00 76 1019.0
20260902044017 26 0 0.0 0.0 0.00 0.00 0.00 75 1018.9
20260902043518 26 0 0.0 0.0 0.00 0.00 0.00 75 1019.0
20260902043017 26 0 0.0 0.0 0.00 0.00 0.00 75 1019.1
20260902042517 26 0 0.0 0.0 0.00 0.00 0.00 74 1019.1
20260902042017 27 0 0.0 0.0 0.00 0.00 0.00 74 1019.1
20260902041517 27 0 0.0 0.0 0.00 0.00 0.00 73 1019.1
20260902041017 27 0 0.0 0.0 0.00 0.00 0.00 73 1019.1
20260902040517 27 0 0.0 0.0 0.00 0.00 0.00 72 1019.1
20260902040017 27 0 0.0 0.0 0.00 0.00 0.00 72 1019.2
20260902035518 27 0 0.0 0.0 0.00 0.00 0.00 72 1019.1
20260902035017 27 0 0.0 0.0 0.00 0.00 0.00 72 1019.1
20260902034518 27 0 0.0 0.0 0.00 0.00 0.00 72 1019.1
20260902034017 27 0 0.0 0.0 0.00 0.00 0.00 71 1019.0
20260902033517 27 0 0.0 0.0 0.00 0.00 0.00 71 1019.1
20260902033017 27 0 0.0 0.0 0.00 0.00 0.00 71 1019.1
20260902032517 27 0 0.0 0.0 0.00 0.00 0.00 71 1019.1
20260902032017 27 0 0.0 0.0 0.00 0.00 0.00 71 1019.0
20260902031517 27 0 0.0 0.0 0.00 0.00 0.00 70 1019.0
20260902031017 27 0 0.0 0.0 0.00 0.00 0.00 70 1019.0
20260902030517 27 0 0.0 0.0 0.00 0.00 0.00 70 1019.0
20260902030017 27 0 0.0 0.0 0.00 0.00 0.00 70 1019.0
20260902025517 27 0 0.0 0.0 0.00 0.00 0.00 70 1019.0
20260902025017 28 0 0.0 0.0 0.00 0.00 0.00 69 1019.0
20260902024517 28 0 0.0 0.0 0.00 0.00 0.00 69 1018.9
20260902024017 28 0 0.0 0.0 0.00 0.00 0.00 69 1018.9
20260902023517 28 0 0.0 0.0 0.00 0.00 0.00 69 1018.9
20260902023017 28 0 0.0 0.0 0.00 0.00 0.00 68 1018.8
20260902022517 28 0 0.0 0.0 0.00 0.00 0.00 68 1018.8
20260902022017 28 0 0.0 0.0 0.00 0.00 0.00 67 1018.7
20260902021517 28 0 0.0 0.0 0.00 0.00 0.00 68 1018.7
20260902021017 28 0 0.0 0.0 0.00 0.00 0.00 67 1018.7
20260902020517 28 0 0.0 0.0 0.00 0.00 0.00 68 1015.4
20260902020017 28 0 0.0 0.0 0.00 0.00 0.00 67 1018.5
20260902015517 28 0 0.0 0.0 0.00 0.00 0.00 67 1018.4
20260902015017 28 0 0.0 0.0 0.00 0.00 0.00 66 1018.3
20260902014517 28 0 0.0 0.0 0.00 0.00 0.00 66 1018.3
20260902014017 28 0 0.0 0.0 0.00 0.00 0.00 65 1018.3
20260902013517 28 0 0.0 0.0 0.00 0.00 0.00 65 1018.2
20260902013017 28 0 0.0 0.0 0.00 0.00 0.00 65 1018.2
20260902012517 28 0 0.0 0.0 0.00 0.00 0.00 64 1018.1
20260902012018 29 0 0.0 0.0 0.00 0.00 0.00 64 1018.1
20260902011523 29 0 0.0 0.0 0.00 0.00 0.00 63 1017.1
20260902011017 29 0 0.0 0.0 0.00 0.00 0.00 62 1018.0
20260902010517 29 0 0.0 0.0 0.00 0.00 0.00 62 1018.0
20260902010017 30 0 0.0 0.0 0.00 0.00 0.00 61 1013.1
20260902005517 30 0 0.0 0.0 0.00 0.00 0.00 1004.4
20260902005017 30 0 0.0 0.0 0.00 0.00 0.00 61 1017.9
20260902004517 30 0 0.0 0.0 0.00 0.00 0.00 60 1014.7
20260902004017 30 0 0.0 0.0 0.00 0.00 0.00 59 1017.8
20260902003517 30 0 0.0 0.0 0.00 0.00 0.00 59 1017.8
20260902003017 30 0 0.0 0.0 0.00 0.00 0.00 58 1017.8
20260902002517 30 0 0.0 0.0 0.00 0.00 0.00 57 1017.8
20260902002017 31 0 0.0 0.0 0.00 0.00 0.00 57 1017.8
20260902001517 31 0 0.0 0.0 0.00 0.00 0.00 56 1017.8
20260902001017 31 0 0.0 0.0 0.00 0.00 0.00 55 1017.8
20260902000517 31 0 0.0 0.0 0.00 0.00 0.00 55 1017.7
20260902000017 31 0 0.0 0.0 0.00 0.00 0.00 53 1017.8
20260901235517 32 0 0.0 0.0 0.00 0.00 0.00 52 1017.9
20260901235017 32 0 0.0 0.0 0.00 0.00 0.00 51 1017.9
20260901234517 32 0 0.0 0.0 0.00 0.00 0.00 50 1017.9
20260901234017 33 0 0.0 0.0 0.00 0.00 0.00 48 1017.9
20260901233517 33 64 0.0 4.8 0.00 0.00 0.00 47 1018.0
20260901233017 33 75 0.0 3.2 0.00 0.00 0.00 46 1018.0
20260901232517 33 78 0.0 4.8 0.00 0.00 0.00 45 1018.1
20260901232017 33 102 0.0 9.7 0.00 0.00 0.00 45 1018.1